PST,Max TemperatureF,Mean TemperatureF,Min TemperatureF,Max Dew PointF,MeanDew PointF,Min DewpointF,Max Humidity, Mean Humidity, Min Humidity, Max Sea Level PressureIn, Mean Sea Level PressureIn, Min Sea Level PressureIn, Max VisibilityMiles, Mean VisibilityMiles, Min VisibilityMiles, Max Wind SpeedMPH, Mean Wind SpeedMPH, Max Gust SpeedMPH,PrecipitationIn, CloudCover, Events, WindDirDegrees
2013-11-1,89,70,50,43,39,29,71,42,12,30.09,30.01,29.91,10,9,2,7,1,10,0.00,0,,236
2013-11-2,82,67,51,59,44,31,64,40,16,29.97,29.92,29.87,10,10,8,13,3,18,0.00,0,,162
2013-11-3,70,65,60,57,54,52,90,73,55,29.92,29.87,29.81,10,10,7,10,4,20,0.00,6,,135
2013-11-4,68,65,62,52,50,48,67,61,55,29.94,29.85,29.80,10,10,10,10,3,15,0.00,6,,173
2013-11-5,79,64,49,50,39,23,89,51,12,30.12,30.04,29.94,10,10,7,6,1,9,0.00,1,,296
2013-11-6,86,68,50,39,27,12,50,30,9,30.18,30.13,30.07,10,10,10,10,3,13,0.00,0,,287
2013-11-7,88,70,52,40,30,15,50,29,7,30.10,30.03,29.98,10,10,10,8,2,22,0.00,0,,218
2013-11-8,78,64,50,58,45,29,61,40,19,30.03,29.98,29.93,10,8,2,8,3,12,0.00,2,,139
2013-11-9,78,67,55,57,51,33,93,57,20,30.07,30.03,29.99,10,5,2,8,2,12,0.00,3,,228
2013-11-10,85,68,51,54,45,29,86,50,13,30.12,30.06,30.01,10,10,8,12,1,,0.00,0,,234
2013-11-11,81,65,49,52,45,40,77,52,26,30.12,30.06,30.01,10,9,5,7,1,9,0.00,0,,250
2013-11-12,78,66,53,48,47,44,77,55,33,30.15,30.08,30.04,10,8,2,6,1,7,0.00,0,,51
2013-11-13,94,73,51,46,42,32,77,45,12,30.04,29.94,29.86,10,10,8,8,1,22,0.00,0,,224
2013-11-14,91,73,54,59,44,30,66,39,11,29.91,29.83,29.77,10,9,3,9,2,13,0.00,1,,199
2013-11-15,69,65,61,59,55,53,90,75,59,29.76,29.73,29.67,10,9,3,14,6,17,0.00,8,,159
2013-11-16,68,63,57,55,50,46,84,66,48,29.94,29.83,29.75,10,10,9,13,4,16,0.00,6,,173
2013-11-17,71,62,53,52,50,48,77,61,44,30.09,30.01,29.94,10,10,10,10,1,14,0.00,2,,216
2013-11-18,69,60,51,54,52,48,89,71,53,30.15,30.09,30.04,10,9,6,9,2,13,0.00,5,,232
2013-11-19,67,62,57,54,52,50,80,69,58,30.07,30.01,29.95,10,10,10,9,2,14,0.00,6,,211
2013-11-20,67,62,57,57,54,51,86,72,58,29.96,29.92,29.88,10,8,2,9,1,13,0.00,7,Rain,128
2013-11-21,66,63,59,61,57,52,97,82,67,29.88,29.85,29.82,10,7,1,12,7,17,0.25,7,Rain,170
2013-11-22,64,60,55,52,42,37,86,64,42,29.94,29.88,29.82,10,10,10,18,4,24,0.01,5,Rain,81
2013-11-23,69,60,51,46,40,37,63,47,31,30.07,30.01,29.94,10,10,10,17,5,21,0.00,2,,80
2013-11-24,69,58,47,45,41,39,77,56,35,30.18,30.13,30.08,10,10,10,9,2,13,0.00,0,,200
2013-11-25,75,61,46,44,41,37,86,57,27,30.22,30.18,30.14,10,10,9,7,1,10,0.00,0,,326
2013-11-26,81,65,48,46,41,31,80,49,17,30.18,30.10,30.03,10,10,10,15,3,20,0.00,0,,118
2013-11-27,75,64,52,43,39,35,64,45,25,30.01,29.94,29.87,10,10,10,9,2,14,0.00,0,,133
2013-11-28,71,60,49,52,44,38,71,52,33,30.05,29.96,29.88,10,10,10,10,3,14,0.00,1,,169
2013-11-29,68,62,55,54,50,47,86,67,48,30.18,30.12,30.06,10,8,2,9,2,13,0.26,6,Rain,62
2013-11-30,77,65,53,49,47,43,83,57,31,30.17,30.13,30.05,10,10,10,8,2,13,0.00,3,,282